Location: College Rock
(37.2713°N, 119.1740°W)
Time: 13:23:29
(UTC+00:00)

X-37B - Pass Details

Date: 29 October 2020
Orbit: 384 x 390 km, 45.0° (Epoch: 26 November)

Event Time Altitude Azimuth Distance (km) Brightness Sun altitude
Rises 13:19:10 0° 190° (S) 2,254 4.4 -12.4°
Drops below altitude 10° 13:23:19 10° 136° (SE) 1,406 4.2 -11.6°
Maximum altitude 13:23:20 10° 136° (SE) 1,406 4.2 -11.6°
Sets 13:27:30 0° 83° (E) 2,263 6.1 -10.8°
